When you browse on this site, cookies collect data to enhance your experience and personalize the content and advertising you see.
Visit our Privacy Policy to learn more. By continuing to use the site, you agree to this use of cookies and data.
  • în România
  • Lista ţărilor
  • Pe 7 zile
  • Temperatura apei
  • Hartă satelitară
  • Meteo pe hartă
  • Widget-uri
  • user-avatar
    Intrare

    Meteo pe oră la U-Mariy

    Astăzi, 22 Februarie, Vineri

    Timp Temperatura Precipitaţii Vânt Presiune Umiditate
    00:00 -7°C° 0.4 mm 7 m/s 737 mmHg 91%
    01:00 -7°C° 0.4 mm 7 m/s 738 mmHg 91%
    02:00 -7°C° 0.1 mm 7 m/s 737 mmHg 91%
    03:00 -6°C° 0.1 mm 7 m/s 737 mmHg 91%
    04:00 -4°C° 0 mm 4 m/s 737 mmHg 91%
    05:00 -5°C° 0.1 mm 5 m/s 737 mmHg 91%
    06:00 -5°C° 0.1 mm 6 m/s 737 mmHg 91%
    07:00 -6°C° 0.1 mm 6 m/s 736 mmHg 91%
    08:00 -5°C° 0.3 mm 6 m/s 736 mmHg 91%
    09:00 -6°C° 0.3 mm 7 m/s 736 mmHg 91%
    10:00 -6°C° 0 mm 7 m/s 736 mmHg 91%
    11:00 -4°C° 0.5 mm 7 m/s 736 mmHg 91%
    12:00 -4°C° 0.5 mm 7 m/s 736 mmHg 91%
    13:00 -3°C° 0.5 mm 7 m/s 735 mmHg 91%
    14:00 -3°C° 0.6 mm 7 m/s 735 mmHg 91%
    15:00 -3°C° 0.6 mm 6 m/s 735 mmHg 91%
    16:00 -3°C° 0.6 mm 6 m/s 735 mmHg 91%
    17:00 -3°C° 0.6 mm 6 m/s 735 mmHg 91%
    18:00 -3°C° 0.6 mm 6 m/s 736 mmHg 91%
    19:00 -3°C° 0.6 mm 6 m/s 736 mmHg 90%
    20:00 -4°C° 0.1 mm 6 m/s 737 mmHg 91%
    21:00 -5°C° 0.1 mm 6 m/s 737 mmHg 92%
    22:00 -6°C° 0.1 mm 6 m/s 738 mmHg 92%
    23:00 -9°C° 0.2 mm 6 m/s 739 mmHg 91%

    Mâine, 23 Februarie, Sâmbătă

    Timp Temperatura Precipitaţii Vânt Presiune Umiditate
    00:00 -10°C° 0.2 mm 5 m/s 740 mmHg 90%
    01:00 -10°C° 0.2 mm 4 m/s 740 mmHg 89%
    02:00 -11°C° 0 mm 4 m/s 741 mmHg 91%
    03:00 -12°C° 0 mm 4 m/s 741 mmHg 92%
    04:00 -14°C° 0 mm 4 m/s 742 mmHg 94%
    05:00 -14°C° 0 mm 4 m/s 742 mmHg 94%
    06:00 -15°C° 0 mm 4 m/s 743 mmHg 95%
    07:00 -15°C° 0 mm 4 m/s 743 mmHg 96%
    08:00 -14°C° 0.1 mm 4 m/s 743 mmHg 95%
    09:00 -12°C° 0.1 mm 4 m/s 743 mmHg 94%
    10:00 -12°C° 0.1 mm 4 m/s 743 mmHg 93%
    11:00 -11°C° 0.1 mm 4 m/s 743 mmHg 92%
    12:00 -11°C° 0.1 mm 4 m/s 743 mmHg 92%
    13:00 -10°C° 0.1 mm 4 m/s 743 mmHg 91%
    14:00 -10°C° 0.1 mm 4 m/s 743 mmHg 91%
    15:00 -10°C° 0.1 mm 4 m/s 743 mmHg 92%
    16:00 -10°C° 0.1 mm 4 m/s 743 mmHg 92%
    17:00 -10°C° 0.1 mm 4 m/s 743 mmHg 93%
    18:00 -10°C° 0.1 mm 4 m/s 743 mmHg 94%
    19:00 -10°C° 0.1 mm 4 m/s 743 mmHg 95%
    20:00 -10°C° 0.1 mm 4 m/s 744 mmHg 95%
    21:00 -10°C° 0.1 mm 4 m/s 744 mmHg 94%
    22:00 -10°C° 0.1 mm 4 m/s 744 mmHg 94%
    23:00 -11°C° 0.1 mm 4 m/s 744 mmHg 94%

    Poimâine, 24 Februarie, Duminică

    Timp Temperatura Precipitaţii Vânt Presiune Umiditate
    00:00 -11°C° 0.1 mm 4 m/s 744 mmHg 94%
    01:00 -12°C° 0.1 mm 4 m/s 744 mmHg 95%
    02:00 -14°C° 0.1 mm 4 m/s 745 mmHg 95%
    03:00 -14°C° 0.1 mm 4 m/s 745 mmHg 95%
    04:00 -15°C° 0.1 mm 4 m/s 745 mmHg 95%
    05:00 -15°C° 0 mm 3 m/s 745 mmHg 96%
    06:00 -17°C° 0 mm 3 m/s 745 mmHg 97%
    07:00 -18°C° 0 mm 3 m/s 745 mmHg 97%
    08:00 -18°C° 0 mm 3 m/s 745 mmHg 96%
    09:00 -19°C° 0 mm 3 m/s 745 mmHg 94%
    10:00 -18°C° 0 mm 2 m/s 746 mmHg 92%
    11:00 -18°C° 0 mm 3 m/s 745 mmHg 90%
    12:00 -17°C° 0 mm 3 m/s 745 mmHg 87%
    13:00 -16°C° 0 mm 3 m/s 745 mmHg 85%
    14:00 -15°C° 0 mm 3 m/s 745 mmHg 86%
    15:00 -15°C° 0 mm 3 m/s 745 mmHg 87%
    16:00 -16°C° 0 mm 4 m/s 745 mmHg 87%
    17:00 -15°C° 0 mm 3 m/s 744 mmHg 89%
    18:00 -16°C° 0 mm 3 m/s 744 mmHg 90%
    19:00 -16°C° 0 mm 3 m/s 744 mmHg 92%
    20:00 -16°C° 0.1 mm 3 m/s 744 mmHg 93%
    21:00 -16°C° 0.1 mm 3 m/s 744 mmHg 93%
    22:00 -16°C° 0.1 mm 3 m/s 744 mmHg 94%
    23:00 -16°C° 0.2 mm 3 m/s 744 mmHg 95%

    25 Februarie, Luni

    Timp Temperatura Precipitaţii Vânt Presiune Umiditate
    00:00 -15°C° 0.2 mm 3 m/s 744 mmHg 95%
    01:00 -15°C° 0.2 mm 3 m/s 743 mmHg 95%
    02:00 -15°C° 0.1 mm 3 m/s 743 mmHg 96%
    03:00 -16°C° 0.1 mm 3 m/s 743 mmHg 96%
    04:00 -16°C° 0.1 mm 3 m/s 743 mmHg 96%
    05:00 -16°C° 0.1 mm 3 m/s 742 mmHg 96%
    06:00 -16°C° 0.1 mm 3 m/s 742 mmHg 96%
    07:00 -16°C° 0.1 mm 3 m/s 742 mmHg 97%
    08:00 -16°C° 0.1 mm 3 m/s 741 mmHg 96%
    09:00 -16°C° 0.1 mm 4 m/s 741 mmHg 95%
    10:00 -16°C° 0.1 mm 4 m/s 741 mmHg 95%
    11:00 -15°C° 0 mm 4 m/s 741 mmHg 94%
    12:00 -14°C° 0 mm 4 m/s 740 mmHg 94%
    13:00 -12°C° 0 mm 4 m/s 740 mmHg 93%
    14:00 -12°C° 0 mm 4 m/s 739 mmHg 93%
    15:00 -12°C° 0 mm 4 m/s 739 mmHg 92%
    16:00 -12°C° 0 mm 4 m/s 739 mmHg 92%
    17:00 -12°C° 0 mm 4 m/s 738 mmHg 93%
    18:00 -14°C° 0 mm 4 m/s 738 mmHg 94%
    19:00 -13°C° 0 mm 3 m/s 738 mmHg 94%
    20:00 -14°C° 0 mm 3 m/s 738 mmHg 95%
    21:00 -14°C° 0 mm 3 m/s 737 mmHg 95%
    22:00 -14°C° 0 mm 3 m/s 737 mmHg 96%
    23:00 -15°C° 0 mm 3 m/s 737 mmHg 96%

    26 Februarie, Marţi

    Timp Temperatura Precipitaţii Vânt Presiune Umiditate
    00:00 -15°C° 0 mm 3 m/s 736 mmHg 96%
    01:00 -15°C° 0 mm 2 m/s 736 mmHg 97%
    02:00 -15°C° 0 mm 2 m/s 736 mmHg 97%
    03:00 -15°C° 0 mm 2 m/s 736 mmHg 97%
    04:00 -15°C° 0 mm 2 m/s 736 mmHg 97%
    05:00 -16°C° 0 mm 2 m/s 735 mmHg 97%
    06:00 -16°C° 0 mm 2 m/s 735 mmHg 97%
    07:00 -16°C° 0 mm 2 m/s 735 mmHg 97%
    08:00 -15°C° 0 mm 2 m/s 735 mmHg 96%
    09:00 -14°C° 0 mm 2 m/s 735 mmHg 95%
    10:00 -14°C° 0 mm 2 m/s 735 mmHg 95%
    11:00 -13°C° 0 mm 2 m/s 734 mmHg 93%
    12:00 -12°C° 0 mm 2 m/s 734 mmHg 91%
    13:00 -10°C° 0 mm 2 m/s 734 mmHg 89%
    14:00 -8°C° 0 mm 1 m/s 734 mmHg 88%
    15:00 -8°C° 0 mm 1 m/s 733 mmHg 88%
    16:00 -8°C° 0 mm 1 m/s 733 mmHg 87%
    17:00 -10°C° 0 mm 1 m/s 733 mmHg 89%
    18:00 -11°C° 0 mm 0 m/s 733 mmHg 91%
    19:00 -13°C° 0 mm 0 m/s 733 mmHg 93%
    20:00 -14°C° 0 mm 0 m/s 733 mmHg 93%
    21:00 -14°C° 0 mm 1 m/s 733 mmHg 93%
    22:00 -14°C° 0 mm 1 m/s 733 mmHg 93%
    23:00 -14°C° 0 mm 1 m/s 734 mmHg 92%

    27 Februarie, Miercuri

    Timp Temperatura Precipitaţii Vânt Presiune Umiditate
    00:00 -15°C° 0 mm 1 m/s 734 mmHg 92%
    01:00 -15°C° 0 mm 1 m/s 734 mmHg 92%
    02:00 -15°C° 0 mm 1 m/s 734 mmHg 91%
    03:00 -15°C° 0 mm 1 m/s 734 mmHg 90%
    04:00 -15°C° 0 mm 1 m/s 734 mmHg 90%
    05:00 -15°C° 0 mm 1 m/s 734 mmHg 90%
    06:00 -15°C° 0 mm 1 m/s 734 mmHg 90%
    07:00 -15°C° 0 mm 1 m/s 734 mmHg 90%
    08:00 -13°C° 0 mm 1 m/s 735 mmHg 89%
    09:00 -12°C° 0 mm 0 m/s 735 mmHg 88%
    10:00 -10°C° 0 mm 0 m/s 735 mmHg 87%
    11:00 -9°C° 0 mm 1 m/s 735 mmHg 86%
    12:00 -8°C° 0 mm 1 m/s 735 mmHg 86%
    13:00 -6°C° 0 mm 1 m/s 735 mmHg 85%
    14:00 -6°C° 0 mm 1 m/s 735 mmHg 87%
    15:00 -6°C° 0 mm 1 m/s 734 mmHg 89%
    16:00 -7°C° 0 mm 1 m/s 734 mmHg 91%
    17:00 -8°C° 0 mm 1 m/s 734 mmHg 92%
    18:00 -10°C° 0 mm 1 m/s 734 mmHg 93%
    19:00 -12°C° 0 mm 1 m/s 734 mmHg 95%
    20:00 -13°C° 0 mm 1 m/s 734 mmHg 95%
    21:00 -14°C° 0 mm 1 m/s 734 mmHg 95%
    22:00 -14°C° 0 mm 1 m/s 734 mmHg 95%
    23:00 -15°C° 0 mm 1 m/s 733 mmHg 95%
    Arată mai mult